Location: Hlohovi?ky
(49.8934°N, 13.6739°E)
Time: 23:26:24
(UTC+00:00)

Cosmos 1408 Rocket - Pass Details

Date: 19 May 2025
Orbit: 594 x 625 km, 82.6° (Epoch: 22 June)

Event Time Altitude Azimuth Distance (km) Brightness Sun altitude
Rises 22:55:08 0° 343° (NNW) 2,885 8.4 -20.1°
Reaches altitude 10° 22:57:29 10° 335° (NNW) 1,970 7.1 -20.1°
Maximum altitude 23:01:29 37° 269° (W) 946 4.4 -20.1°
Enters shadow 23:02:27 33° 239° (WSW) 1,030 4.4 -20.1°
